CW5917 Weather Reports


Display with metric or nautical units.
time (UTC)temp
F
wind
direction
speed
MPH
gust
MPH
rain 1hr
in
rain 24hr
in
rain mn
in
humidity
%
barometer
mb
20260902101027 74 319 6.0 12.0 0.00 0.01 0.00 92 1015.3
20260902100521 74 225 0.0 2.0 0.00 0.01 0.00 92 1014.5
20260902100019 74 225 0.0 2.0 0.00 0.01 0.00 92 1014.6
20260902095530 74 225 0.0 1.0 0.00 0.01 0.00 92 1014.5
20260902095023 74 225 0.0 1.0 0.00 0.01 0.00 92 1014.6
20260902094519 74 225 0.0 2.0 0.00 0.01 0.00 92 1014.6
20260902094032 74 225 1.0 4.0 0.00 0.01 0.00 92 1014.7
20260902093524 74 225 2.0 4.0 0.00 0.01 0.00 92 1014.6
20260902093025 74 228 2.0 5.0 0.00 0.01 0.00 92 1014.8
20260902092520 74 360 1.0 2.0 0.00 0.01 0.00 93 1014.9
20260902092031 74 360 0.0 3.0 0.00 0.01 0.00 93 1014.9
20260902091520 74 360 1.0 4.0 0.00 0.01 0.00 93 1015.1
20260902091035 74 360 2.0 4.0 0.00 0.01 0.00 93 1015.0
20260902090529 74 219 1.0 5.0 0.00 0.01 0.00 93 1014.9
20260902090021 74 319 2.0 6.0 0.00 0.01 0.00 93 1014.8
20260902085531 74 9 4.0 8.0 0.00 0.01 0.00 93 1015.0
20260902085037 74 5 5.0 8.0 0.00 0.01 0.00 93 1015.0
20260902084518 74 304 1.0 4.0 0.00 0.01 0.00 93 1014.6
20260902084031 74 304 1.0 4.0 0.00 0.01 0.00 93 1014.6
20260902083518 74 304 1.0 3.0 0.00 0.01 0.00 93 1014.5
20260902083024 74 304 2.0 3.0 0.00 0.01 0.00 93 1014.4
20260902082534 73 304 2.0 4.0 0.00 0.01 0.00 93 1014.2
20260902082037 73 304 2.0 4.0 0.00 0.01 0.00 93 1014.2
20260902081526 73 304 3.0 4.0 0.00 0.01 0.00 93 1014.1
20260902081022 73 304 2.0 3.0 0.00 0.01 0.00 93 1014.3
20260902080537 73 304 2.0 3.0 0.00 0.01 0.00 93 1014.2
20260902080016 72 304 1.0 3.0 0.00 0.01 0.00 92 1014.1
20260902075536 72 304 1.0 2.0 0.00 0.01 0.00 92 1014.0
20260902075032 72 304 0.0 2.0 0.00 0.01 0.00 92 1014.1
20260902074534 72 304 0.0 1.0 0.00 0.01 0.00 91 1014.0
20260902074047 72 304 0.0 2.0 0.00 0.01 0.00 91 1013.9
20260902073520 72 304 1.0 2.0 0.00 0.01 0.00 91 1013.8
20260902073019 72 304 1.0 2.0 0.00 0.01 0.00 91 1013.8
20260902072557 72 304 0.0 2.0 0.00 0.01 0.00 91 1013.8
20260902072052 72 304 0.0 2.0 0.00 0.01 0.00 91 1013.8
20260902071542 72 304 0.0 0.0 0.00 0.01 0.00 91 1013.9
20260902071031 72 304 0.0 1.0 0.00 0.01 0.00 91 1014.0
20260902070527 73 304 0.0 1.0 0.00 0.01 0.00 91 1014.0
20260902070017 73 304 0.0 1.0 0.00 0.01 0.00 90 1014.1
20260902065533 73 304 0.0 1.0 0.00 0.01 0.00 90 1014.0
20260902065036 73 304 0.0 1.0 0.00 0.01 0.00 90 1014.1
20260902064020 73 304 0.0 0.0 0.00 0.01 0.00 90 1014.2
20260902063536 73 304 0.0 0.0 0.00 0.01 0.00 90 1014.2
20260902063027 73 304 0.0 0.0 0.00 0.01 0.00 90 1014.2
20260902062523 73 304 0.0 0.0 0.00 0.01 0.00 90 1014.4
20260902062018 73 304 0.0 0.0 0.00 0.01 0.00 90 1014.3
20260902061553 73 304 0.0 0.0 0.00 0.01 0.00 90 1014.3
20260902061027 73 304 0.0 0.0 0.00 0.01 0.00 89 1014.3
20260902060542 73 304 0.0 0.0 0.00 0.01 0.00 89 1014.3
20260902060036 73 304 0.0 0.0 0.00 0.01 0.00 89 1014.3
20260902055529 73 304 0.0 0.0 0.00 0.01 0.00 89 1014.3
20260902055022 73 304 0.0 0.0 0.00 0.01 0.00 89 1014.3
20260902054536 73 304 0.0 0.0 0.00 0.01 0.00 89 1014.2
20260902054018 73 304 0.0 0.0 0.00 0.01 0.00 89 1014.3
20260902053533 73 304 0.0 0.0 0.00 0.01 0.00 89 1014.3
20260902053033 73 304 0.0 2.0 0.00 0.01 0.00 88 1014.4
20260902052525 74 304 1.0 2.0 0.00 0.01 0.00 88 1014.4
20260902052021 74 304 1.0 2.0 0.00 0.01 0.00 87 1014.4
20260902051525 74 304 1.0 2.0 0.00 0.01 0.00 87 1014.3
20260902051040 74 304 2.0 2.0 0.00 0.01 0.00 86 1014.3
20260902050534 74 304 1.0 2.0 0.00 0.01 0.00 86 1014.3
20260902050033 74 304 0.0 1.0 0.00 0.01 0.01 86 1014.3
20260902045555 74 304 0.0 0.0 0.00 0.01 0.01 86 1014.3
20260902045018 74 304 0.0 0.0 0.00 0.01 0.01 86 1014.3
20260902044525 74 304 0.0 0.0 0.00 0.01 0.01 85 1014.4
20260902044023 74 304 0.0 0.0 0.00 0.01 0.01 85 1014.4
20260902043520 74 304 0.0 0.0 0.00 0.01 0.01 85 1014.4
20260902043033 75 304 0.0 0.0 0.00 0.01 0.01 85 1014.4
20260902042520 75 304 0.0 0.0 0.00 0.01 0.01 85 1014.5
20260902042033 75 304 0.0 2.0 0.00 0.01 0.01 85 1014.5
20260902041532 75 304 0.0 2.0 0.00 0.01 0.01 85 1014.5
20260902041027 75 304 0.0 3.0 0.00 0.01 0.01 85 1014.6
20260902040519 75 304 1.0 4.0 0.00 0.01 0.01 84 1014.6
20260902040035 75 304 1.0 4.0 0.00 0.01 0.01 85 1014.6
20260902035551 76 304 1.0 3.0 0.00 0.01 0.01 85 1014.6
20260902035025 76 304 0.0 2.0 0.00 0.01 0.01 85 1014.5
20260902034527 76 304 0.0 1.0 0.00 0.01 0.01 84 1014.5
20260902034021 76 304 0.0 2.0 0.00 0.01 0.01 84 1014.6
20260902033534 76 304 0.0 2.0 0.00 0.01 0.01 84 1014.5
20260902033033 76 304 0.0 2.0 0.00 0.01 0.01 84 1014.5
20260902032528 76 304 0.0 2.0 0.00 0.01 0.01 83 1014.5
20260902032019 76 304 0.0 3.0 0.00 0.01 0.01 83 1014.5
20260902031536 76 304 2.0 3.0 0.00 0.01 0.01 83 1014.4
20260902031026 76 304 2.0 3.0 0.00 0.01 0.01 84 1014.5
20260902030521 77 304 3.0 3.0 0.00 0.01 0.01 84 1014.6
20260902030053 77 304 3.0 3.0 0.00 0.01 0.01 85 1014.6
20260902025526 77 304 2.0 3.0 0.00 0.01 0.01 85 1014.7
20260902025020 77 304 2.0 3.0 0.00 0.01 0.01 86 1014.6
20260902024555 77 304 1.0 2.0 0.00 0.01 0.01 86 1014.6
20260902024019 78 304 1.0 2.0 0.00 0.01 0.01 86 1014.6
20260902023532 78 304 0.0 3.0 0.00 0.01 0.01 86 1014.5
20260902023022 78 304 2.0 3.0 0.00 0.01 0.01 86 1014.6
20260902022519 78 304 0.0 0.0 0.00 0.01 0.01 86 1014.7
20260902022034 78 304 0.0 0.0 0.00 0.01 0.01 86 1014.6
20260902021528 78 304 0.0 0.0 0.00 0.01 0.01 86 1014.8
20260902021022 78 304 0.0 1.0 0.00 0.01 0.01 86 1014.7
20260902020534 78 304 0.0 1.0 0.00 0.01 0.01 86 1014.6
20260902020052 78 304 0.0 2.0 0.00 0.01 0.01 86 1014.8
20260902015523 78 304 1.0 2.0 0.00 0.01 0.01 86 1014.6
20260902015032 78 304 1.0 1.0 0.00 0.01 0.01 86 1014.6
20260902014518 78 304 0.0 0.0 0.00 0.01 0.01 86 1014.6
20260902014032 78 304 0.0 0.0 0.00 0.01 0.01 86 1014.6
20260902013535 78 304 0.0 0.0 0.00 0.01 0.01 86 1014.5
20260902013033 79 304 0.0 1.0 0.00 0.01 0.01 86 1014.6
20260902012521 79 304 1.0 2.0 0.00 0.01 0.01 86 1014.6
20260902012032 79 304 1.0 2.0 0.00 0.01 0.01 86 1014.6
20260902011533 79 304 0.0 0.0 0.00 0.01 0.01 86 1014.5
20260902011024 79 304 0.0 0.0 0.00 0.01 0.01 85 1014.6
20260902010519 79 304 0.0 0.0 0.00 0.01 0.01 85 1014.6
20260902010048 79 304 0.0 0.0 0.00 0.01 0.01 85 1014.5
20260902005519 79 304 0.0 0.0 0.00 0.01 0.01 85 1014.4
20260902005054 79 304 0.0 0.0 0.00 0.01 0.01 85 1014.4
20260902004523 79 304 0.0 0.0 0.00 0.01 0.01 85 1014.3
20260902004038 80 304 0.0 2.0 0.00 0.01 0.01 85 1014.2
20260902003530 80 304 0.0 2.0 0.00 0.01 0.01 85 1014.3
20260902003034 81 304 0.0 3.0 0.00 0.01 0.01 84 1014.2
20260902002531 81 304 1.0 3.0 0.00 0.01 0.01 83 1014.3
20260902002036 82 304 2.0 3.0 0.00 0.01 0.01 83 1014.3
20260902001555 82 304 2.0 3.0 0.00 0.01 0.01 82 1014.4
20260902001021 82 304 2.0 3.0 0.00 0.01 0.01 83 1014.3
20260902000553 82 304 0.0 3.0 0.00 0.01 0.01 84 1014.3
20260902000032 83 304 0.0 3.0 0.00 0.01 0.01 85 1014.4
20260901235520 83 304 2.0 3.0 0.00 0.01 0.01 84 1014.3
20260901235035 83 304 2.0 3.0 0.00 0.01 0.01 82 1014.4
20260901234531 83 304 2.0 3.0 0.00 0.01 0.01 82 1014.4
20260901234026 83 304 2.0 4.0 0.00 0.01 0.01 81 1014.2
20260901233556 84 304 2.0 4.0 0.00 0.01 0.01 80 1014.2
20260901233025 84 304 2.0 3.0 0.00 0.01 0.01 80 1014.2
20260901232522 83 304 1.0 2.0 0.00 0.01 0.01 82 1014.2
20260901232038 84 304 0.0 2.0 0.00 0.01 0.01 81 1014.2
20260901231529 84 304 1.0 3.0 0.00 0.01 0.01 81 1014.3
20260901231022 84 304 0.0 4.0 0.00 0.01 0.01 82 1014.3
20260901230520 84 304 2.0 4.0 0.00 0.01 0.01 81 1014.2
20260901230042 84 304 3.0 4.0 0.00 0.01 0.01 82 1014.3
20260901225519 84 304 2.0 5.0 0.00 0.01 0.01 82 1014.4
20260901225022 85 304 3.0 5.0 0.00 0.01 0.01 82 1014.2
20260901224557 85 301 2.0 4.0 0.00 0.01 0.01 82 1014.3
20260901224027 85 301 3.0 5.0 0.00 0.01 0.01 81 1014.3
20260901223523 85 309 3.0 5.0 0.00 0.01 0.01 81 1014.3
20260901223019 85 248 2.0 4.0 0.00 0.01 0.01 82 1014.1
20260901222537 84 228 3.0 4.0 0.00 0.01 0.01 81 1014.0
20260901222033 84 226 2.0 6.0 0.00 0.01 0.01 81 1013.8
20260901221531 85 200 4.0 6.0 0.00 0.01 0.01 80 1013.7
20260901221024 85 196 4.0 6.0 0.00 0.01 0.01 78 1013.8
20260901220520 85 233 2.0 5.0 0.00 0.01 0.01 76 1014.0
20260901220027 85 250 3.0 5.0 0.00 0.01 0.01 77 1014.1
20260901215518 85 255 2.0 7.0 0.00 0.01 0.01 78 1014.3
20260901215035 85 300 3.0 7.0 0.00 0.01 0.01 78 1014.4
20260901214531 84 293 3.0 5.0 0.00 0.01 0.01 81 1014.5
20260901214026 84 293 2.0 5.0 0.00 0.01 0.01 82 1014.7
20260901213523 84 293 2.0 4.0 0.00 0.01 0.01 83 1014.9
20260901213022 83 293 2.0 4.0 0.00 0.01 0.01 84 1014.7
20260901212556 83 293 1.0 3.0 0.00 0.01 0.01 84 1014.7
20260901212031 83 293 1.0 4.0 0.00 0.01 0.01 84 1014.8
20260901211521 83 293 2.0 4.0 0.00 0.01 0.01 84 1014.9
20260901211036 83 293 2.0 4.0 0.00 0.01 0.01 83 1015.0
20260901210540 83 293 2.0 4.0 0.00 0.01 0.01 82 1015.1
20260901210023 84 293 2.0 4.0 0.00 0.01 0.01 81 1015.0
20260901205528 84 293 3.0 7.0 0.00 0.01 0.01 81 1015.0
20260901205023 84 293 2.0 7.0 0.00 0.01 0.01 78 1014.9
20260901204521 84 293 2.0 4.0 0.00 0.01 0.01 79 1015.0
20260901204031 84 293 3.0 4.0 0.00 0.01 0.01 79 1015.0
20260901203536 84 293 3.0 4.0 0.00 0.01 0.01 79 1014.9
20260901203034 84 282 2.0 6.0 0.00 0.01 0.01 78 1014.9
20260901202528 84 283 3.0 7.0 0.00 0.01 0.01 79 1014.9
20260901202016 85 283 3.0 7.0 0.00 0.01 0.01 78 1014.9
20260901201516 85 273 3.0 6.0 0.00 0.01 0.01 79 1014.8
20260901201021 85 281 3.0 5.0 0.00 0.01 0.01 79 1014.8
20260901200554 84 308 4.0 5.0 0.00 0.01 0.01 82 1014.9
20260901200053 84 307 3.0 5.0 0.01 0.01 0.01 81 1014.9
20260901195517 83 299 3.0 7.0 0.01 0.01 0.01 83 1014.9
20260901195034 83 291 4.0 7.0 0.01 0.01 0.01 83 1015.0
20260901194530 83 293 4.0 7.0 0.01 0.01 0.01 84 1015.1
20260901194025 82 200 3.0 5.0 0.01 0.01 0.01 86 1015.0
20260901193521 82 227 1.0 5.0 0.01 0.01 0.01 87 1015.1
20260901193029 81 224 3.0 6.0 0.01 0.01 0.01 88 1015.1
20260901192522 80 224 4.0 6.0 0.01 0.01 0.01 88 1015.1
20260901192018 80 232 4.0 6.0 0.01 0.01 0.01 89 1015.2
20260901191536 80 210 2.0 7.0 0.01 0.01 0.01 88 1015.3
20260901191031 80 225 4.0 7.0 0.01 0.01 0.01 87 1015.4
20260901190547 81 219 4.0 7.0 0.00 0.00 0.00 87 1015.3
20260901190054 81 223 6.0 9.0 0.00 0.00 0.00 87 1015.5
20260901185527 82 238 6.0 10.0 0.00 0.00 0.00 88 1015.6
20260901185019 81 219 8.0 10.0 0.00 0.00 0.00 88 1015.4
20260901184527 81 211 6.0 8.0 0.00 0.00 0.00 89 1015.4
20260901184025 81 208 5.0 8.0 0.00 0.00 0.00 89 1015.3
20260901183520 81 192 5.0 8.0 0.00 0.00 0.00 89 1015.4
20260901183021 81 205 5.0 8.0 0.00 0.00 0.00 89 1015.3
20260901182516 81 224 4.0 9.0 0.00 0.00 0.00 88 1015.2
20260901182038 81 200 5.0 10.0 0.00 0.00 0.00 88 1015.3
20260901181535 82 213 7.0 11.0 0.00 0.00 0.00 88 1015.5
20260901181030 81 222 7.0 9.0 0.00 0.00 0.00 88 1015.3
20260901180535 82 171 7.0 8.0 0.00 0.00 0.00 86 1015.1
20260901180016 82 217 5.0 10.0 0.00 0.00 0.00 85 1015.2
20260901175521 82 229 7.0 10.0 0.00 0.00 0.00 83 1015.2
20260901175032 83 227 7.0 10.0 0.00 0.00 0.00 83 1015.3
20260901174532 83 193 7.0 10.0 0.00 0.00 0.00 82 1015.4
20260901174025 83 231 3.0 11.0 0.00 0.00 0.00 83 1015.5
20260901173522 83 226 8.0 11.0 0.00 0.00 0.00 83 1015.4
20260901173021 83 217 6.0 12.0 0.00 0.00 0.00 84 1015.6
20260901172517 84 211 8.0 11.0 0.00 0.00 0.00 83 1015.7
20260901172017 84 203 5.0 11.0 0.00 0.00 0.00 84 1015.8
20260901171517 85 157 8.0 11.0 0.00 0.00 0.00 84 1015.6
20260901171032 84 182 7.0 11.0 0.00 0.00 0.00 85 1015.6
20260901170527 83 220 7.0 10.0 0.00 0.00 0.00 85 1015.6
20260901170019 83 228 7.0 9.0 0.00 0.00 0.00 86 1015.6
20260901165531 82 222 6.0 8.0 0.00 0.00 0.00 87 1015.6
20260901165057 82 186 5.0 8.0 0.00 0.00 0.00 86 1015.5
20260901164528 82 191 5.0 10.0 0.00 0.00 0.00 85 1015.5
20260901164025 83 225 5.0 10.0 0.00 0.00 0.00 86 1015.5
20260901163518 83 162 4.0 8.0 0.00 0.00 0.00 86 1015.5
20260901163018 83 147 3.0 7.0 0.00 0.00 0.00 86 1015.6
20260901162531 83 189 4.0 7.0 0.00 0.00 0.00 86 1015.4
20260901162016 82 224 5.0 8.0 0.00 0.00 0.00 87 1015.5
20260901161537 82 194 5.0 8.0 0.00 0.00 0.00 87 1015.5
20260901161030 82 220 3.0 9.0 0.00 0.00 0.00 88 1015.5
20260901160545 82 217 6.0 9.0 0.00 0.00 0.00 88 1015.5
20260901160048 82 245 3.0 7.0 0.00 0.00 0.00 89 1015.4
20260901155522 81 196 4.0 5.0 0.00 0.00 0.00 89 1015.5
20260901155034 80 199 3.0 8.0 0.00 0.00 0.00 90 1015.4
20260901154535 80 277 4.0 8.0 0.00 0.00 0.00 90 1015.5
20260901154024 80 165 5.0 9.0 0.00 0.00 0.00 91 1015.4
20260901153519 80 227 5.0 8.0 0.00 0.00 0.00 91 1015.5
20260901153024 80 222 5.0 8.0 0.00 0.00 0.00 91 1015.5
20260901152520 79 219 2.0 4.0 0.00 0.00 0.00 92 1015.4
20260901152031 79 219 0.0 5.0 0.00 0.00 0.00 92 1015.5
20260901151521 79 219 3.0 5.0 0.00 0.00 0.00 94 1015.6
20260901151038 78 219 4.0 6.0 0.00 0.00 0.00 94 1015.6
20260901150527 77 228 3.0 5.0 0.00 0.00 0.00 94 1015.5
20260901150029 77 203 3.0 5.0 0.00 0.00 0.00 94 1015.4
20260901145526 77 188 3.0 8.0 0.00 0.00 0.00 94 1015.3
20260901145043 77 222 5.0 8.0 0.00 0.00 0.00 94 1015.4
20260901144554 77 198 5.0 7.0 0.00 0.00 0.00 94 1015.4
20260901144028 77 199 4.0 5.0 0.00 0.00 0.00 95 1015.4
20260901143539 77 209 2.0 4.0 0.00 0.00 0.00 95 1015.3
20260901143025 77 209 2.0 4.0 0.00 0.00 0.00 95 1015.4
20260901142519 77 209 1.0 4.0 0.00 0.00 0.00 95 1015.6
20260901142017 76 286 1.0 4.0 0.00 0.00 0.00 95 1015.8
20260901141532 76 300 1.0 3.0 0.00 0.00 0.00 95 1015.9
20260901141037 76 300 2.0 6.0 0.00 0.00 0.00 95 1015.9
20260901140531 76 300 2.0 7.0 0.00 0.00 0.00 95 1015.9
20260901140021 76 286 2.0 7.0 0.00 0.00 0.00 95 1015.8
20260901135519 76 267 3.0 5.0 0.00 0.00 0.00 95 1015.9
20260901135016 75 292 3.0 8.0 0.00 0.00 0.00 95 1015.8
20260901134532 75 237 5.0 10.0 0.00 0.00 0.00 95 1015.8
20260901134018 75 238 7.0 11.0 0.00 0.00 0.00 95 1015.8
20260901133533 75 207 8.0 11.0 0.00 0.00 0.00 95 1015.8
20260901133030 75 217 9.0 10.0 0.00 0.00 0.00 95 1015.8
20260901132525 74 225 5.0 7.0 0.00 0.00 0.00 95 1015.8
20260901132055 74 218 5.0 7.0 0.00 0.00 0.00 95 1015.6
20260901131531 75 203 3.0 4.0 0.00 0.00 0.00 95 1015.6
20260901131028 74 244 2.0 4.0 0.00 0.00 0.00 95 1015.7
20260901130521 74 244 3.0 5.0 0.00 0.00 0.00 95 1015.6
20260901130034 74 244 3.0 5.0 0.00 0.00 0.00 95 1015.7
20260901125525 74 248 2.0 5.0 0.00 0.00 0.00 95 1015.6
20260901125019 74 227 2.0 5.0 0.00 0.00 0.00 95 1015.5
20260901124536 73 227 2.0 4.0 0.00 0.00 0.00 95 1015.4
20260901124031 73 227 2.0 4.0 0.00 0.00 0.00 95 1015.4
20260901123524 73 227 2.0 4.0 0.00 0.00 0.00 95 1015.3
20260901123051 73 227 2.0 3.0 0.00 0.00 0.00 95 1015.3
20260901122523 73 227 1.0 6.0 0.00 0.00 0.00 95 1015.2
20260901122018 73 227 1.0 6.0 0.00 0.00 0.00 95 1015.1
20260901121525 73 232 3.0 5.0 0.00 0.00 0.00 95 1015.2
20260901121019 73 232 2.0 5.0 0.00 0.00 0.00 95 1015.2
20260901120517 73 232 2.0 5.0 0.00 0.00 0.00 95 1015.1
20260901120033 73 232 2.0 4.0 0.00 0.00 0.00 95 1015.1
20260901115518 73 232 3.0 4.0 0.00 0.00 0.00 95 1015.1
20260901115034 72 232 1.0 3.0 0.00 0.00 0.00 95 1015.1
20260901114555 72 232 2.0 3.0 0.00 0.00 0.00 95 1015.0
20260901114028 72 232 0.0 3.0 0.00 0.00 0.00 95 1014.9
20260901113523 72 232 1.0 3.0 0.00 0.00 0.00 95 1015.0
20260901113047 73 232 0.0 4.0 0.00 0.00 0.00 95 1014.9
20260901112530 73 232 1.0 4.0 0.00 0.00 0.00 95 1014.9
20260901112018 73 232 2.0 4.0 0.00 0.00 0.00 95 1014.8
20260901111537 72 232 3.0 4.0 0.00 0.00 0.00 95 1014.7
20260901111027 73 232 2.0 4.0 0.00 0.00 0.00 95 1014.6
20260901110524 73 232 2.0 4.0 0.00 0.00 0.00 94 1014.6
20260901110018 73 232 1.0 3.0 0.00 0.00 0.00 94 1014.6
20260901105531 73 232 1.0 3.0 0.00 0.00 0.00 94 1014.6
20260901105017 73 232 1.0 3.0 0.00 0.00 0.00 94 1014.5
20260901104527 73 232 0.0 2.0 0.00 0.00 0.00 95 1014.6
20260901104019 73 232 1.0 4.0 0.00 0.00 0.00 95 1014.7
20260901103533 73 232 2.0 4.0 0.00 0.00 0.00 95 1014.7
20260901103030 73 232 2.0 6.0 0.00 0.00 0.00 95 1014.6
20260901102528 73 232 3.0 7.0 0.00 0.00 0.00 95 1014.5
20260901102042 73 228 5.0 7.0 0.00 0.00 0.00 94 1014.6
20260901101516 73 221 5.0 7.0 0.00 0.00 0.00 94 1014.6